Weather History for South Bend, IN

Change the Weather History Date:

Thursday, February 14, 2013

  Actual Average Record
Temperature  
Mean Temperature 37 °F 27 °F  
Max Temperature 41 °F 35 °F 59 °F (1954)
Min Temperature 33 °F 20 °F -18 °F (1905)
Degree Days  
Heating Degree Days 28 38  
Month to date heating degree days 530 547  
Since 1 July heating degree days 3878 4195  
Cooling Degree Days 0 0  
Month to date cooling degree days 0 0  
Year to date cooling degree days 0 0  
Moisture  
Dew Point 28 °F    
Average Humidity 67    
Maximum Humidity 82    
Minimum Humidity 52    
Precipitation  
Precipitation 0.00 in 0.07 in 0.93 in (1949)
Month to date precipitation 0.92 0.91  
Year to date precipitation 5.92 3.20  
Snow  
Snow 0.00 in - - ()
Month to date snowfall 10.7  
Snow Depth 0.00 in    
Sea Level Pressure  
Sea Level Pressure 29.79 in    
Wind  
Wind Speed 13 mph (WSW)    
Max Wind Speed 25 mph    
Max Gust Speed 32 mph    
Visibility 10 miles    
Events      
T = Trace of Precipitation, MM = Missing Value Source: NWS Daily Summary

Daily Weather History Graph

Daily Weather History Graph

Search for Another Location

Airport:

Trip Planner

Search our weather history database for the weather conditions in past years. The results will help you decide how hot, cold, wet, or windy it might be!

Date:

Astronomy

Feb. 14, 2013 Rise Set
Actual Time 7:41 AM EST 6:17 PM EST
Civil Twilight 7:13 AM EST 6:46 PM EST
Nautical Twilight 6:40 AM EST 7:18 PM EST
Astronomical Twilight 6:08 AM EST 7:51 PM EST
Moon 9:38 AM EST (2/14) 11:25 PM EST (2/14)
Length of Visible Light 11h 33m
Length of Day
10h 36m
Waxing Crescent, 21% of the Moon is Illuminated
Feb 14
Waxing Crescent
Feb 17
First Quarter
Feb 25
Full
Mar 4
Last Quarter
Mar 11
New

Hourly Weather History & Observations

Time (EST) Temp. Windchill Dew Point Humidity Pressure Visibility Wind Dir Wind Speed Gust Speed Precip Events Conditions
12:54 AM 34.0 °F 28.0 °F 28.9 °F 82% 29.78 in 8.0 mi SW 6.9 mph - N/A   Overcast
1:54 AM 35.1 °F 29.3 °F 30.0 °F 82% 29.79 in 8.0 mi SW 6.9 mph - N/A   Overcast
2:54 AM 35.1 °F 28.6 °F 30.0 °F 82% 29.78 in 8.0 mi SSW 8.1 mph - N/A   Overcast
3:54 AM 34.0 °F 27.2 °F 28.9 °F 82% 29.77 in 8.0 mi SSW 8.1 mph - N/A   Overcast
4:54 AM 35.1 °F 28.6 °F 30.0 °F 82% 29.76 in 9.0 mi SSW 8.1 mph - N/A   Overcast
5:54 AM 35.1 °F 29.3 °F 30.0 °F 82% 29.75 in 9.0 mi South 6.9 mph - N/A   Overcast
6:54 AM 36.0 °F 28.5 °F 28.9 °F 76% 29.73 in 10.0 mi South 10.4 mph - N/A   Overcast
7:54 AM 37.0 °F 28.5 °F 28.9 °F 73% 29.71 in 10.0 mi South 13.8 mph - N/A   Overcast
8:54 AM 37.0 °F 28.5 °F 30.0 °F 76% 29.72 in 10.0 mi SSW 13.8 mph - N/A   Mostly Cloudy
9:54 AM 37.9 °F 28.9 °F 30.9 °F 76% 29.72 in 10.0 mi SSW 16.1 mph 24.2 mph N/A   Overcast
10:25 AM 39.2 °F 30.5 °F 30.2 °F 70% 29.70 in 10.0 mi SSW 16.1 mph 29.9 mph N/A   Mostly Cloudy
10:54 AM 39.0 °F 30.3 °F 30.9 °F 73% 29.73 in 10.0 mi SW 16.1 mph 24.2 mph N/A   Overcast
11:54 AM 41.0 °F 33.9 °F 32.0 °F 70% 29.73 in 10.0 mi WSW 12.7 mph 27.6 mph N/A   Overcast
12:54 PM 41.0 °F 33.1 °F 30.9 °F 67% 29.72 in 10.0 mi WSW 15.0 mph - N/A   Overcast
1:54 PM 37.9 °F 28.9 °F 28.9 °F 70% 29.74 in 10.0 mi WSW 16.1 mph 27.6 mph N/A   Overcast
2:39 PM 39.2 °F 29.0 °F 28.4 °F 65% 29.72 in 10.0 mi WSW 21.9 mph 28.8 mph N/A   Overcast
2:54 PM 39.0 °F 31.0 °F 27.0 °F 62% 29.75 in 10.0 mi WSW 13.8 mph 24.2 mph N/A   Overcast
3:54 PM 39.0 °F 31.4 °F 28.0 °F 65% 29.78 in 10.0 mi WSW 12.7 mph - N/A   Overcast
4:54 PM 37.9 °F 28.9 °F 28.9 °F 70% 29.82 in 10.0 mi West 16.1 mph - N/A   Overcast
5:54 PM 36.0 °F 25.3 °F 26.1 °F 67% 29.86 in 10.0 mi WNW 19.6 mph 24.2 mph N/A   Overcast
6:54 PM 36.0 °F 28.0 °F 26.1 °F 67% 29.90 in 10.0 mi West 11.5 mph - N/A   Overcast
7:54 PM 36.0 °F 26.7 °F 25.0 °F 64% 29.92 in 10.0 mi WNW 15.0 mph 21.9 mph N/A   Overcast
8:54 PM 35.1 °F 25.2 °F 19.0 °F 52% 29.94 in 10.0 mi WNW 16.1 mph 21.9 mph N/A   Overcast
9:54 PM 34.0 °F 22.7 °F 19.9 °F 56% 29.96 in 10.0 mi West 19.6 mph 24.2 mph N/A   Overcast
10:54 PM 34.0 °F 26.6 °F 19.9 °F 56% 29.97 in 10.0 mi West 9.2 mph - N/A   Overcast
11:54 PM 34.0 °F 26.6 °F 19.9 °F 56% 29.96 in 10.0 mi WNW 9.2 mph - N/A   Overcast